Location: Alando
(42.3054°N, 9.2895°E)
Time: 15:13:27
(UTC+00:00)

SL-24 R/B - Pass Details

Date: 09 April 2020
Orbit: 504 x 1003 km, 97.4° (Epoch: 28 May)

Event Time Altitude Azimuth Distance (km) Brightness Sun altitude
Rises 18:47:25 0° 21° (NNE) 2,794 7.4 -9.6°
Reaches altitude 10° 18:49:48 10° 31° (NNE) 1,833 6.4 -10.0°
Maximum altitude 18:53:21 33° 96° (E) 899 4.4 -10.6°
Drops below altitude 10° 18:56:41 10° 162° (SSE) 1,719 6.0 -11.2°
Sets 18:58:51 0° 172° (S) 2,590 7.0 -11.6°
